www.pogodaiklimat.ru

Погода и климат >> Архив погоды >> Канада >> Medicine Hat Arpt


ПОГОДА в Medicine Hat Arpt

  • Прогноз погоды в Medicine Hat Arpt
  • Монитор погоды в Medicine Hat Arpt
  • Климат города

АРХИВ ПОГОДЫ в Medicine Hat Arpt

Время (UTC), дата Ветер
(напр.,м/с)
 
Видим.   Явления Облачность Т
(С)
Тd
(С)
f
(%)
Тe
(С)
Тes
(С)
Комфортность P
(гПа)
Po
(гПа)
Тmin
(С)
Tmax
(С)
R
(мм)
R24
(мм)
S
(см)
03 9.07 З 8 н/о н/о +1.7 0.0 88 -5 -5 981.8 972.8
06 9.07 С 4 н/о {осадки} н/о -0.4 -0.4 100 -6 -6 982.2 973.1 -0.4 +4.5 2 13
09 9.07 штиль 0 н/о {осадки} н/о -0.5 -0.5 100 -2 -2 982.3 973.2 0.7
12 9.07 С 4 н/о {осадки} н/о 0.0 -0.3 98 -6 -6 982.2 973.2 -0.6 +4.5 4
15 9.07 С 3 н/о н/о +0.7 -0.3 93 -4 -4 982.8 973.7 1
18 9.07 С 3 н/о н/о +0.4 -0.5 94 -4 -4 982.7 973.6 -0.6 +0.9 2
21 9.07 СВ 1 н/о н/о +1.0 -0.8 88 -1 -1 983.1 974.0 0.7
00 10.07 З 7 н/о {осадки} н/о +0.9 -0.6 90 -6 -6 983.8 974.7 -0.6 +3.6 0.7
03 10.07 СЗ 4 н/о {осадки} н/о +0.3 -0.4 95 -5 -5 984.3 975.2 1
06 10.07 С 3 н/о {осадки} н/о +0.1 -0.3 97 -5 -5 984.8 975.7 -0.6 +3.6 1
09 10.07 С 3 н/о н/о -0.3 -0.9 96 -5 -5 985.5 976.4
12 10.07 В 2 н/о н/о +1.5 -1.9 78 -1 -1 986.3 977.2 -0.7 +3.6
15 10.07 Ю 5 н/о н/о +1.3 -1.8 80 -4 -4 986.8 977.7
18 10.07 ЮЗ 4 н/о н/о +3.3 -0.7 75 -1 -1 987.8 978.7 -0.7 +3.3
21 10.07 З 12 н/о н/о +1.5 -0.3 88 -7 -7 989.0 979.9
00 11.07 З 9 н/о н/о +2.9 -1.1 75 -4 -4 990.7 981.6 -0.7 +3.6
03 11.07 З 13 н/о н/о +1.7 -1.2 81 -7 -7 992.0 982.9
06 11.07 З 13 н/о н/о +0.9 -2.0 81 -8 -8 993.6 984.5 -0.7 +3.6 4
09 11.07 З 10 н/о н/о +0.5 -2.1 83 -8 -8 996.0 986.8
12 11.07 ЮВ 3 н/о н/о +0.7 -1.1 88 -3 -3 997.6 988.4 -0.0 +3.6
15 11.07 ЮВ 3 н/о н/о +1.4 -2.1 77 -2 -2 997.6 988.4
18 11.07 Ю 4 н/о н/о +2.0 -1.1 80 -3 -3 997.9 988.7 -0.0 +2.4
21 11.07 Ю 6 н/о н/о +2.9 +0.9 87 -3 -3 998.5 989.3
00 12.07 З 5 н/о н/о +2.5 +0.8 89 -3 -3 999.3 990.1 -0.0 +3.3
03 12.07 СВ 1 н/о н/о +0.5 +0.1 97 -2 -2 999.9 990.7
06 12.07 З 5 н/о н/о +1.1 +0.2 94 -5 -5 1000.2 991.0 -0.0 +3.3 6
09 12.07 З 6 н/о н/о +0.7 -0.1 94 -6 -6 1000.4 991.2
12 12.07 З 7 н/о н/о +0.9 +0.1 94 -6 -6 1000.6 991.4 +0.4 +3.3
15 12.07 З 10 н/о н/о +0.5 -0.6 92 -8 -8 1000.6 991.4
18 12.07 З 11 н/о н/о +0.6 -1.0 89 -8 -8 1001.0 991.8 +0.3 +1.1
21 12.07 З 15 н/о н/о +0.8 -0.5 91 -9 -9 1001.5 992.3
00 13.07 З 17 н/о н/о +0.5 -0.2 95 -10 -10 1001.8 992.6 +0.3 +1.0
03 13.07 З 17 н/о н/о +0.8 -0.8 89 -9 -9 1002.6 993.3
06 13.07 З 10 н/о {осадки} н/о +0.5 -0.5 93 -8 -8 1004.6 995.3 +0.3 +1.1 0.2 4
09 13.07 З 8 н/о {осадки} н/о +0.6 -0.3 94 -7 -7 1005.5 996.2 0.4
12 13.07 З 11 н/о {осадки} н/о +0.7 -0.2 94 -8 -8 1004.9 995.6 +0.3 +1.1 0.7
15 13.07 З 6 н/о н/о +1.0 -0.3 91 -6 -6 1005.3 996.0
18 13.07 Ю 5 н/о {осадки} н/о +1.4 +0.9 96 -4 -4 1004.6 995.3 +0.2 +2.0 1
21 13.07 Ю 5 н/о н/о +1.0 +0.5 96 -5 -5 1003.8 994.5
00 14.07 Ю 3 н/о н/о +1.5 +0.9 96 -3 -3 1002.6 993.4 +0.2 +2.1
03 14.07 ЮЗ 2 н/о {осадки} н/о +1.6 +0.5 92 -1 -1 1001.0 991.8 0.2
06 14.07 З 2 н/о {осадки} н/о +1.2 +0.6 96 -3 -3 1000.1 990.9 +0.2 +2.1 0.7 13
09 14.07 В 1 н/о н/о +0.2 0.0 99 -2 -2 999.6 990.4 1
12 14.07 ЮВ 1 н/о {осадки} н/о +1.1 +0.5 96 -1 -1 999.6 990.4 +0.1 +2.1 2
15 14.07 Ю 5 н/о н/о +1.6 +0.7 94 -4 -4 1000.0 990.8 0.2
18 14.07 Ю 7 н/о {осадки} н/о +2.3 +1.0 91 -4 -4 1000.4 991.2 +0.1 +2.4 0.4
21 14.07 ЮЗ 5 н/о {осадки} н/о +2.3 +1.3 93 -3 -3 1001.3 992.1 1
00 15.07 Ю 4 н/о {осадки} н/о +3.5 +2.2 91 -1 -1 1002.1 992.9 +0.1 +3.5 3
03 15.07 З 6 н/о н/о +1.8 +0.9 94 -5 -5 1002.7 993.5 1
06 15.07 З 7 н/о н/о +1.1 0.0 92 -6 -6 1003.0 993.8 +0.1 +3.5 1 20
09 15.07 З 6 н/о н/о +0.7 -0.2 94 -6 -6 1003.2 994.0
12 15.07 З 7 н/о н/о +0.4 -0.4 94 -7 -7 1003.2 994.0 +0.4 +3.5 0.2
15 15.07 З 8 н/о н/о +0.3 -0.9 92 -7 -7 1003.6 994.3
18 15.07 З 9 н/о {осадки} н/о +0.3 -0.7 93 -8 -8 1003.8 994.5 -0.0 +1.1 0.4
21 15.07 З 7 н/о н/о +0.1 -0.7 94 -7 -7 1005.0 995.7
00 16.07 З 9 н/о н/о -0.1 -1.0 94 -8 -8 1005.8 996.5 -0.3 +0.8

 

Местоположение метеостанции Medicine Hat Arpt (Канада): широта 50.02 долгота -110.70 высота над уровнем моря 716 м.

В архиве по умолчанию представлена погода в Medicine Hat Arpt за последнюю неделю. Архивные данные за месяц целиком и за предыдущие месяцы, начиная с января 2011 года, Вы можете получить, выбрав интересующий диапазон дат из раскрывающегося списка и нажав кнопку "Ввод!".


*Определитесь, кто Вы:
робот инопланетянин человек

Внимание! Время в таблицах - всемирное. Для получения местного времени необходимо прибавить поправку, которая в Medicine Hat Arpt равна -7 ч.

Смотрите также архив погоды в соседних городах и на ближайших метеорологических станциях:

Погода в Seven Persons Agdm (Канада) (18 км)
Погода в Irvine Agcm (Канада) (32 км)
Погода в Bow Island Agdm (Канада) (46 км)
Погода в Schuler Radar (Канада) (48 км)
Погода в Schuler Agdm (Канада) (59 км)
Погода в Bow Island (Канада) (60 км)
Погода в Manyberries Agcm (Канада) (73 км)
Погода в Grassy Lake (Канада) (73 км)
Погода в Rolling Hills (Канада) (77 км)
Погода в Foremost Agdm (Канада) (79 км)

Пояснения к столбцам:

Ветер - указаны скорость ветра в м/с - средняя за 10 мин, порывы в срок и между сроками (в фигурных скобках) и направление, откуда дует ветер: С - северный, СВ - северо-восточный, В - восточный, ЮВ - юго-восточный, Ю - южный, ЮЗ - юго-западный, З - западный, СЗ - северо-западный.
Видимость - горизонтальная дальность видимости в метрах или километрах. При видимости от 1 до 10 км при отсутствии осадков обычно наблюдается дымка, при ухудшении видимости до 1 км и менее - туман. В сухую погоду видимость может ухудшаться дымом, пылью или мглою.
Явления - указаны атмосферные явления, наблюдавшиеся в срок или в последний час перед сроком; фигурными скобками обозначены явления, наблюдавшиеся между сроками (за 1-3 часа до срока); квадратными скобками обозначены град или гололедные отложения с указанием их диаметра в мм.
Облачность - указаны через наклонную черту общая и нижняя облачность в баллах и высота нижней границы облаков в метрах; квадратными скобками обозначены формы облаков: Ci - перистые, Cs - перисто-слоистые, Cc - перисто-кучевые, Ac - высококучевые, As - высокослоистые, Sc - слоисто-кучевые, Ns - слоисто-дождевые, Cu - кучевые, Cb - кучево-дождевые. Подробнее классификацию облаков см. в Атласе облаков (PDF).
T - Температура воздуха - температура, измеренная на высоте 2 м над землей.
Td - Температура точки росы - температура, при понижении до которой содержащийся в воздухе водяной пар достигнет насыщения.
f - Относительная влажность воздуха - влажноcть воздуха, измеренная на высоте 2 м над землей.
Te - Эффективная температура - температура, которую ощущает одетый по сезону человек в тени. Характеристика душности погоды. При расчете учитывается влияние влажности воздуха и скорости ветра на теплоощущения человека.
Tes - Эффективная температура на солнце - температура, которую ощущает человек, с поправкой на солнечный нагрев. Характеристика знойности погоды. Зависит от высоты солнца над горизонтом, облачности и скорости ветра. Ночью, в пасмурную погоду, а также при ветре 12 м/с и более поправка равна нулю.
P - Атмосферное давление - приведенное к уровню моря атмосферное давление.
Po - Атмосферное давление - измеренное на уровне метеостанции атмосферное давление.
Tmin - Минимальная температура - минимум температуры воздуха на высоте 2 м над землей.
Tmax - Максимальная температура - максимум температуры воздуха на высоте 2 м над землей.
R - Количество осадков - Количество выпавших осадков за период времени, мм. При наведении курсора мыши на число - период времени, за который выпало указанное количество осадков.
R24 - Количество осадков - Количество выпавших осадков за 24 часа, мм.
S - Снежный покров - Высота снежного покрова, см. При наведении курсора мыши на число - состояние снежного покрова и степень покрытия местности в баллах.